Regional Weather Roundup
Issued by NWS

Home | Current Version | Previous Version | Text Only | Print | Product List | Glossary Off
Versions: 1 2 3 4 5 6 7 8 9 10 11 12 13 14 15 16 17 18 19 20 21 22 23 24 25 26 27 28 29 30 31 32 33 34 35 36 37 38 39 40 41 42 43 44 45 46 47 48 49 50

000
ASUS45 KPSR 270800
RWRAZ

ARIZONA HOURLY REGIONAL WEATHER ROUNDUP
NATIONAL WEATHER SERVICE PHOENIX AZ
100 AM MST WED MAY 27 2015

NOTE: FAIR INDICATES FEW OR NO CLOUDS BELOW 12,000 FEET WITH NO
SIGNIFICANT WEATHER AND/OR OBSTRUCTIONS TO VISIBILITY.

AZZ001>003-036-270900-
NORTHWEST ARIZONA

CITY           SKY/WX    TMP DP  RH WIND       PRES   REMARKS
KINGMAN        PTCLDY    64  26  23 S8        29.98F
$$

AZZ004>008-015-016-018-270900-
NORTH CENTRAL ARIZONA

CITY           SKY/WX    TMP DP  RH WIND       PRES   REMARKS
GRAND CANYON   PTCLDY    41  35  79 NE3       30.18S
WILLIAMS       PTCLDY    45  32  61 S8        30.24F
PRESCOTT       MOCLDY    56  32  40 S3        30.09F
FLAGSTAFF      NOT AVBL
PAYSON         PTCLDY    55  32  41 CALM      30.11F
PAGE           PTCLDY    63  44  50 W3        30.04S
$$

AZZ009>014-017-270900-
NORTHEAST ARIZONA

CITY           SKY/WX    TMP DP  RH WIND       PRES   REMARKS
WINSLOW        NOT AVBL
SAINT JOHNS    PTCLDY    55  28  35 S3        30.13S
WINDOW ROCK    CLEAR     56  32  40 CALM      30.18S
$$

AZZ023-270900-
GREATER PHOENIX AREA

CITY           SKY/WX    TMP DP  RH WIND       PRES   REMARKS
PHOENIX        MOCLDY    82  33  17 NW7       29.86S
LUKE AFB       MOCLDY    78  37  22 S10       29.86S
DEER VALLEY    MOCLDY    74  38  27 N3        29.88F
SCOTTSDALE     MOCLDY    78  37  22 CALM      29.90F
$$

AZZ027-028-270900-
SOUTHWEST MARICOPA COUNTY AND PINAL COUNTY

CITY           SKY/WX    TMP DP  RH WIND       PRES   REMARKS
CASA GRANDE    PTCLDY    72  25  17 SW5       29.89S
GILA BEND      FAIR      72  36  26 S7        29.86F
$$

AZZ503-504-507>509-270900-
SOUTHEAST ARIZONA

CITY           SKY/WX    TMP DP  RH WIND       PRES   REMARKS
TUCSON         CLEAR     72  28  19 SE6       29.99F
DAVIS-MONTHAN  MOCLDY    69  30  23 S2        29.98S
NOGALES        CLEAR     60  29  30 E5        30.04F
SIERRA VISTA   CLEAR     62  22  22 W7        30.09F
SAFFORD        CLEAR     65  32  29 NW6       29.95S
$$

AZZ020-021-025-026-031-270900-
SOUTHWEST ARIZONA

CITY           SKY/WX    TMP DP  RH WIND       PRES   REMARKS
YUMA           MOCLDY    74  43  32 S9        29.83F
$$

CAZ031-033-041-043-047-048-061-270900-
SOUTHERN CALIFORNIA

CITY           SKY/WX    TMP DP  RH WIND       PRES   REMARKS
DOWNTOWN L.A.  CLOUDY    60  53  77 CALM      29.99F
L.A. AIRPORT   MOCLDY    59  53  80 W5        30.00F
SAN DIEGO      CLOUDY    62  53  72 W5        30.01S
BURBANK        CLOUDY    58  52  80 S6        29.99S
ONTARIO        CLOUDY    59  53  80 W7        29.99S HAZE
RIVERSIDE      MOCLDY    59  54  83 W5        30.00R
PALM SPRINGS   PTCLDY    71  53  52 CALM      29.86S
EL CENTRO NAS  MOCLDY    74  46  36 W13       29.82S
IMPERIAL       MOCLDY    75  48  38 SE5       29.81S
BLYTHE         PTCLDY    78  45  30 SW7       29.83S
$$

NVZ020-UTZ003-270900-
SOUTHERN NEVADA-UTAH

CITY           SKY/WX    TMP DP  RH WIND       PRES   REMARKS
LAS VEGAS      NOT AVBL
SALT LAKE CITY MOCLDY    55  48  77 SE10      30.04F
$$

NMZ009-TXZ055-270900-
NEW MEXICO-WEST TEXAS

CITY           SKY/WX    TMP DP  RH WIND       PRES   REMARKS
ALBUQUERQUE    MOCLDY    63  44  50 E8        30.10F
EL PASO        CLEAR     65  31  28 S5        30.01S
$$


........................KEY........................
SKY/WX - SKY CONDITION/WEATHER
TMP    - TEMPERATURE IN FAHRENHEIT
DP     - DEW POINT IN FAHRENHEIT
RH     - RELATIVE HUMIDITY IN PERCENT
WIND   - DIRECTION AND SPEED IN MILES PER HOUR (MPH)
VRB    - VARIABLE WIND DIRECTION
PRES   - MEAN SEA LEVEL PRESSURE IN INCHES OF MERCURY
         F - FALLING PRESSURE   R - RISING PRESSURE
         S - STEADY PRESSURE
VSB    - VISIBILITY IN MILES
HX     - HEAT INDEX IN FAHRENHEIT
WCI    - WIND CHILL INDEX IN FAHRENHEIT
TC     - TEMPERATURE IN CELSIUS WHICH IS ALSO KNOWN AS
         TEMPERATURE IN CENTIGRADE
AFB    - AIR FORCE BASE
         LUKE AFB IS LUKE AIR FORCE BASE
         DAVIS-MONTHAN IS DAVIS-MONTHAN AIR FORCE BASE
NAS    - NAVAL AIR STATION
         EL CENTRO NAS IS EL CENTRO NAVAL AIR STATION
N/A    - NOT AVAILABLE



USA.gov is the U.S. government's official web portal to all federal, state and local government web resources and services.